Temperature
22 22 22 21 22 22 23 24 25 25 25 25 25 25 24 23 22 20 19 19 19 18 18 18 18 18 18 18 18 18 17 18 18 17 17 17 17 17 17 18 18 18 18 18 18 18 18 18 18
22 22 22 22 22 23 23 25 25 25 25 25 25 25 24 22 21 20 19 19 19 18 18 18 18 18 18 18 18 18 18 17 17 17 17 17 17 17 17 17 18 18 18 18 18 18 18 18 18
22 22 23 23 23 23 24 25 25 26 25 25 25 24 23 22 21 20 19 19 19 18 18 18 18 18 18 18 18 17 17 17 17 17 17 17 17 17 17 17 17 17 17 17 17 17 17 18 18
22 23 24 23 24 24 25 25 26 26 25 25 25 23 22 21 21 20 20 19 19 18 18 18 18 18 18 18 18 18 17 17 17 17 17 17 17 17 17 17 17 17 17 17 17 17 17 17 17
23 24 23 24 24 25 26 26 26 26 25 25 24 23 21 21 20 20 20 20 19 18 18 18 18 18 18 18 18 18 17 17 17 17 17 17 17 17 17 17 17 17 17 17 17 17 17 17 17
24 24 23 23 24 25 26 26 26 26 25 25 24 23 21 20 20 20 20 20 19 19 18 18 18 18 18 18 18 17 17 17 17 17 17 17 17 17 17 17 17 17 17 17 17 17 17 17 17
24 23 23 24 24 25 26 26 26 25 25 25 24 23 21 20 20 20 20 20 19 19 19 18 18 18 18 18 18 17 17 17 17 17 17 17 17 17 17 17 17 17 17 17 17 17 17 17 17
24 24 24 24 24 24 26 26 25 25 25 24 24 23 22 21 20 20 20 20 19 19 19 18 18 18 18 18 17 17 17 17 17 17 17 17 17 17 16 17 17 17 17 17 17 17 17 17 17
24 24 23 24 24 24 25 25 25 25 24 24 23 23 22 21 21 21 20 20 20 19 19 19 18 18 18 18 17 17 17 17 17 17 17 17 16 16 16 17 17 17 17 17 17 17 17 16 16
25 22 24 25 25 25 25 25 25 25 24 24 23 22 22 21 21 21 21 20 20 19 19 19 19 18 18 18 17 17 17 17 17 17 16 16 16 16 16 16 16 16 16 16 16 16 16 16 16
25 24 24 25 25 25 25 25 25 24 23 23 23 22 22 22 21 21 21 20 20 19 19 19 19 18 18 18 17 17 17 17 17 16 16 16 16 16 16 16 16 16 16 16 16 16 16 16 16
26 26 25 25 25 25 24 24 24 24 23 23 23 22 22 22 22 21 21 20 20 20 19 19 19 19 18 18 18 17 17 17 16 16 16 16 16 16 16 16 16 16 16 16 16 16 16 16 16
25 25 25 25 25 25 24 24 24 23 23 23 23 22 22 22 22 21 21 21 20 20 19 19 19 19 18 18 17 17 17 17 16 16 16 16 16 16 16 16 16 16 16 16 16 16 16 16 16
25 25 25 25 25 25 24 24 24 23 23 23 22 22 22 22 21 21 21 21 20 20 19 19 19 19 18 18 17 17 17 17 16 16 16 16 16 16 16 16 16 16 16 16 16 16 16 15 15
25 25 25 25 25 25 24 23 24 24 23 23 23 22 22 22 21 21 21 21 20 20 20 19 19 19 18 18 17 17 17 16 16 16 16 16 16 16 16 16 15 15 15 15 15 15 15 15 15
25 25 24 25 26 25 24 22 24 24 23 23 23 22 22 21 21 21 21 21 20 20 20 19 19 18 18 18 17 17 17 16 16 16 16 16 16 16 16 15 15 15 15 15 15 15 15 15 15
25 24 24 25 26 26 24 23 24 24 24 23 23 22 22 21 21 21 21 20 20 20 20 19 19 18 18 18 17 17 17 16 16 16 16 16 16 16 15 15 15 15 15 15 15 15 15 15 15
24 24 24 25 25 25 24 23 24 24 24 23 23 22 22 21 21 21 20 20 20 19 19 19 19 18 18 18 17 17 16 16 16 16 16 16 16 15 15 15 15 15 15 15 15 15 15 15 15
25 25 24 25 25 25 24 23 23 23 23 23 23 22 22 21 21 20 20 20 19 19 19 19 18 18 18 17 17 17 16 16 16 16 15 15 15 15 15 15 15 15 15 15 14 14 14 14 15
25 24 24 24 25 25 23 23 23 23 23 22 22 22 22 21 20 20 20 19 19 19 18 18 18 17 17 17 17 16 16 16 16 15 15 15 15 15 15 15 15 14 14 14 14 14 14 14 14
25 24 24 24 24 24 23 22 23 23 23 22 22 22 21 21 20 20 19 19 19 18 18 18 17 17 17 17 16 16 16 15 15 15 15 15 15 15 14 14 14 14 14 14 14 14 14 14 14
24 25 24 24 23 23 24 22 22 22 22 22 22 22 21 20 20 19 19 18 18 18 18 17 17 17 17 16 16 16 16 15 15 15 15 15 14 14 14 14 14 14 14 14 14 14 14 14 14
24 25 24 24 23 23 23 23 22 22 21 21 21 21 20 20 19 19 18 18 18 17 17 17 17 16 16 16 16 16 15 15 15 15 15 15 14 14 14 14 14 14 14 14 13 13 13 13 13
24 24 24 24 23 22 23 23 22 22 22 22 21 21 20 19 19 18 18 18 17 17 17 17 16 16 16 16 16 15 15 15 15 15 15 14 14 14 14 14 14 13 13 13 13 13 13 13 13
24 23 22 22 22 22 24 23 22 22 23 22 21 21 20 19 18 18 17 17 16 16 16 16 16 16 16 16 15 15 15 15 14 14 14 14 14 14 14 14 14 13 13 13 13 13 13 13 13
23 23 21 21 21 23 24 22 21 22 22 22 21 20 19 19 18 17 17 16 16 16 16 15 15 15 15 15 15 15 15 14 14 14 14 14 14 14 14 14 13 13 13 13 13 13 13 13 13
23 23 24 22 22 22 22 21 21 22 21 21 20 20 19 19 18 17 17 16 16 16 15 15 15 15 15 15 15 14 14 14 14 14 14 13 13 13 13 13 13 13 13 13 13 13 13 13 13
23 23 22 21 20 20 22 22 21 20 20 20 20 19 19 18 18 17 17 16 16 15 15 15 15 14 14 14 14 14 14 14 13 13 13 13 13 13 13 13 13 13 13 13 13 13 13 13 13
23 23 22 22 21 20 20 20 22 21 20 20 20 19 18 18 17 17 16 16 15 15 15 15 14 14 14 14 14 14 14 14 13 13 13 13 13 13 13 13 13 13 12 13 13 12 12 12 12
23 22 22 20 20 20 20 19 22 21 21 20 19 19 18 18 17 17 16 16 15 15 15 14 14 14 14 13 13 13 13 13 13 13 13 13 13 12 12 12 12 12 12 12 12 12 12 12 12
Wind_Speed
10 10 7 2 2 0 5 6 6 7 8 10 10 9 12 13 9 7 3 3 7 9 12 11 11 11 12 12 12 12 12 12 11 11 11 11 11 11 11 10 10 10 9 10 9 10 9 9 8
8 7 4 2 1 2 5 6 8 9 7 7 8 10 12 12 11 7 4 5 9 12 13 12 11 11 12 12 12 11 11 11 11 11 11 11 11 11 10 10 10 10 10 10 10 9 9 9 9
10 7 4 2 1 3 5 6 8 8 7 6 7 10 8 7 9 6 5 6 10 12 14 13 12 12 12 12 12 12 11 12 11 11 11 11 10 10 10 10 11 10 10 10 10 9 9 9 10
5 3 3 0 4 6 6 6 7 7 6 7 7 8 8 8 6 7 6 8 11 12 14 13 12 12 12 12 12 12 12 12 11 11 11 11 10 10 10 10 10 10 9 10 10 10 10 10 10
4 3 1 2 4 6 6 6 6 6 6 8 10 10 9 8 9 9 6 8 11 11 12 13 12 11 11 11 12 12 11 11 11 11 10 11 11 11 11 11 10 10 9 9 9 10 10 10 10
3 2 1 2 5 6 6 6 6 8 8 8 9 9 7 8 8 7 6 8 10 10 11 13 12 12 11 11 11 11 11 11 10 10 10 10 11 11 12 11 11 10 9 9 9 10 10 10 9
3 2 1 3 4 4 5 6 6 7 8 6 6 8 7 8 7 6 7 8 9 9 9 10 11 11 11 11 10 10 10 10 9 9 9 9 10 11 12 12 12 11 10 11 11 10 10 10 9
3 2 1 2 4 4 5 6 6 7 6 6 5 6 7 8 7 7 7 8 8 8 7 7 9 10 9 10 9 9 9 8 7 7 7 7 8 9 11 11 11 11 11 11 10 10 9 9 8
3 1 0 2 3 3 4 5 5 5 6 7 8 9 10 10 8 7 6 6 6 6 6 6 6 7 9 9 9 7 7 6 6 4 4 3 4 7 9 10 10 10 10 9 8 8 7 6 5
1 1 2 3 3 3 3 3 4 4 5 6 8 10 10 8 7 6 6 7 7 5 5 5 5 6 6 7 8 6 5 5 4 4 3 2 5 8 9 9 9 8 7 6 6 5 4 3 2
2 2 3 3 4 3 3 3 3 4 4 5 6 8 8 7 6 6 6 6 6 6 5 5 5 5 5 4 5 3 4 3 3 4 5 5 6 6 7 5 5 4 4 2 2 2 1 3 3
3 2 2 3 4 3 2 2 3 5 4 5 6 7 6 6 5 5 5 5 6 6 5 4 4 4 5 5 3 3 3 2 2 3 6 5 3 3 4 3 3 3 2 2 2 1 2 4 4
3 2 2 2 3 3 3 3 3 3 4 5 6 5 5 5 4 5 5 5 7 7 5 4 3 4 4 4 3 4 3 3 4 4 4 5 3 3 3 3 3 3 3 2 3 3 5 5 6
2 2 2 3 4 4 4 2 2 2 4 5 6 4 4 4 4 4 4 4 5 6 6 5 3 3 4 4 3 3 4 4 4 3 4 5 4 3 3 3 3 3 3 3 3 4 4 4 4
3 3 4 4 5 4 3 2 2 3 5 5 5 4 3 3 3 3 4 4 4 5 5 4 4 3 4 4 4 4 3 4 3 2 3 4 5 4 3 3 3 3 4 4 4 5 4 3 4
5 5 5 5 6 6 4 2 2 4 5 5 4 4 4 4 3 2 4 4 4 5 5 4 4 4 4 3 4 3 3 4 3 2 2 4 5 5 4 3 3 4 4 3 3 3 3 3 3
6 6 5 4 5 5 4 3 3 3 4 5 6 5 5 4 4 3 4 3 4 4 5 5 5 4 3 3 3 3 3 3 3 3 3 4 4 5 4 2 3 4 3 2 3 3 3 3 3
4 3 3 3 3 4 4 4 4 4 4 4 5 5 5 4 3 3 4 4 4 4 4 4 4 4 4 3 3 2 2 3 3 3 3 4 3 5 4 2 3 4 3 3 3 3 3 2 1
5 5 4 2 1 2 3 3 3 4 3 3 3 3 4 5 4 4 4 5 4 4 4 4 4 4 3 2 2 2 2 2 2 1 3 3 3 3 3 2 3 3 3 2 2 2 2 1 1
6 6 5 3 3 3 4 4 3 3 4 2 2 3 3 4 4 4 4 4 4 3 3 3 3 3 3 2 2 2 2 2 2 1 2 2 2 2 2 2 2 2 2 2 2 2 2 1 2
7 5 4 5 5 6 6 6 5 4 4 3 2 2 3 3 3 4 3 3 3 3 3 2 3 3 3 3 2 2 2 2 1 2 1 1 2 2 2 2 2 1 2 1 1 1 1 0 2
5 4 5 6 7 6 7 5 5 7 5 5 4 3 2 3 3 3 3 3 3 3 3 2 2 2 3 3 3 3 2 1 2 1 1 1 1 2 1 1 2 1 1 1 1 1 1 1 0
5 6 8 9 9 10 11 7 5 8 6 6 5 4 3 3 4 4 4 3 3 3 2 1 2 2 2 3 3 3 2 1 1 2 2 2 2 1 1 1 1 1 1 1 1 1 1 1 1
5 8 11 11 9 10 9 7 3 4 5 6 6 5 4 4 4 4 4 4 3 3 3 1 1 1 1 2 3 3 2 2 1 1 2 2 1 2 2 1 1 1 1 2 2 1 1 1 0
6 7 4 4 6 6 5 4 2 4 4 5 5 5 5 4 4 4 4 4 3 3 2 1 1 0 1 1 2 3 3 2 2 2 2 2 1 1 2 2 2 1 1 1 1 2 2 1 1
7 8 5 5 6 5 4 2 4 6 5 5 4 4 5 4 4 3 3 3 2 2 1 1 1 1 1 1 2 2 2 2 1 1 1 2 1 2 2 1 2 2 1 1 1 1 2 2 2
7 7 8 8 10 9 4 2 2 5 5 5 4 4 4 4 4 3 3 2 2 2 1 1 1 1 2 2 2 2 2 2 2 2 1 2 2 1 1 1 1 1 1 1 1 1 2 2 2
8 8 6 5 5 7 5 4 3 5 3 3 4 4 4 4 3 3 3 2 1 1 1 1 1 1 2 2 2 2 2 2 2 2 1 1 2 2 2 1 2 2 2 2 2 2 2 2 1
7 8 7 5 5 6 6 2 1 3 4 3 4 4 3 2 2 1 2 2 1 1 1 1 1 1 1 2 2 2 2 2 2 1 1 2 2 2 2 2 2 2 2 2 2 2 2 2 2
7 8 7 6 6 6 7 3 2 2 3 3 3 3 3 2 1 1 1 1 1 1 1 0 1 1 1 2 2 2 2 3 2 2 2 2 2 3 3 3 2 2 2 2 2 3 3 3 3
Wind_Direction
279 258 250 256 260 183 62 68 65 57 53 50 47 54 61 51 52 84 125 89 86 94 102 92 77 69 66 67 68 66 65 64 62 60 64 65 65 62 61 62 64 67 71 75 76 77 74 70 66
278 283 275 246 263 80 68 71 73 67 66 60 57 57 65 62 73 97 104 83 88 91 95 91 81 74 71 71 71 67 65 64 63 62 64 66 68 68 65 61 65 69 71 74 74 73 73 72 68
264 268 271 265 36 70 88 76 83 81 67 62 69 59 53 62 75 99 111 108 94 92 95 95 89 81 75 74 72 68 66 65 64 64 64 63 64 66 67 67 66 67 73 77 75 73 75 73 69
265 262 247 69 58 61 85 93 89 87 74 69 74 75 68 63 80 101 119 115 102 99 102 104 99 89 80 75 73 70 68 65 64 63 63 62 63 66 68 70 68 67 71 76 78 78 77 74 70
244 259 232 113 84 82 80 85 83 82 73 72 80 88 84 73 89 102 115 107 106 109 109 112 109 100 91 82 74 72 70 67 66 66 65 65 65 66 70 69 67 66 70 82 86 83 81 77 70
258 248 235 105 92 79 77 83 80 82 84 84 92 97 95 102 99 110 110 106 107 112 114 117 119 111 102 91 81 75 74 72 70 69 69 68 69 69 69 69 64 63 73 86 92 86 83 80 71
284 292 225 114 100 81 69 65 64 67 65 65 87 99 112 111 116 123 119 111 110 113 120 128 129 119 110 101 91 85 80 79 77 72 70 71 75 76 73 69 63 64 75 87 90 87 85 82 73
291 294 194 121 115 87 73 78 73 67 66 63 67 91 114 123 133 128 120 114 117 123 125 131 135 134 127 117 105 100 92 86 85 83 78 84 87 85 80 74 66 68 79 86 88 89 89 85 76
272 289 120 96 104 100 90 93 97 95 89 76 76 85 110 125 134 132 123 114 113 118 125 128 129 134 132 128 123 123 116 109 104 104 94 100 117 106 86 81 79 75 80 87 88 89 90 92 86
197 65 48 66 76 91 91 87 106 114 99 90 94 99 115 134 143 145 138 130 128 125 121 117 120 120 119 117 129 140 126 132 128 116 102 88 85 92 90 92 89 87 85 87 87 89 99 114 122
131 127 81 76 87 90 87 85 71 103 102 110 118 122 130 139 148 146 135 131 130 129 123 123 121 121 120 115 122 119 113 115 97 95 97 79 85 104 107 114 110 107 107 108 96 110 141 102 78
140 120 102 99 84 91 89 93 78 72 94 110 108 120 132 146 143 133 130 129 127 121 120 113 113 119 120 110 111 103 95 96 67 53 77 71 65 74 90 93 106 113 115 87 91 84 65 71 72
162 154 135 142 130 118 107 84 88 86 113 117 112 117 140 139 131 133 133 131 128 128 125 118 111 113 118 113 109 106 88 82 79 51 71 78 63 58 71 79 77 74 70 67 49 52 52 47 39
150 149 169 178 167 160 135 128 138 143 145 146 142 143 147 134 127 126 134 135 133 134 137 133 125 118 108 104 102 99 88 81 77 65 56 82 79 62 65 71 62 57 55 55 61 58 59 57 50
191 195 197 196 194 170 141 156 185 176 163 159 149 143 137 121 125 143 137 130 129 130 128 131 127 109 103 104 107 95 91 90 69 58 50 73 84 80 66 70 70 68 55 46 47 56 52 56 55
211 218 208 196 197 181 185 202 174 171 167 161 158 152 149 146 147 139 125 117 112 114 115 119 120 116 104 101 107 100 89 89 80 58 41 65 78 83 76 71 72 69 60 48 45 47 57 50 50
223 217 216 200 190 193 194 197 169 190 185 173 174 168 165 159 151 139 123 118 118 120 127 124 116 114 103 99 101 96 90 94 87 75 55 53 60 82 82 74 74 75 67 49 51 47 49 49 44
248 236 230 221 184 186 194 196 179 190 208 198 181 172 164 147 138 125 126 121 109 107 113 112 116 113 109 103 102 103 105 95 75 67 66 61 52 72 77 84 83 82 74 50 44 50 42 50 37
286 289 278 276 237 244 227 220 204 189 196 209 191 169 159 148 139 119 110 118 115 112 104 108 104 100 90 99 115 123 120 118 114 92 75 70 56 67 74 67 74 71 79 76 59 53 42 15 22
266 266 264 257 232 250 246 240 226 184 176 183 183 166 152 140 134 116 108 109 118 122 119 113 109 113 113 90 114 133 128 131 127 122 85 86 77 58 79 93 89 92 95 81 64 65 52 350 6
267 269 278 272 274 249 242 237 211 173 171 164 170 166 141 138 134 122 104 105 109 108 105 101 111 120 119 118 105 89 118 132 127 137 146 143 104 96 82 93 102 116 123 130 136 111 96 351 333
278 302 282 262 267 258 243 253 200 170 169 174 175 165 141 131 119 109 104 94 94 95 102 114 118 116 122 132 128 132 129 156 163 166 164 180 108 91 95 96 115 125 114 124 154 135 137 142 280
292 301 282 265 264 268 254 256 204 173 180 171 159 139 125 109 100 96 93 80 89 94 100 122 137 143 131 134 144 146 147 156 169 159 159 186 173 157 137 119 145 167 166 177 171 140 143 153 177
284 276 265 251 252 257 252 249 213 192 176 158 146 135 122 106 98 99 94 78 70 79 80 72 91 115 158 168 164 159 174 174 163 182 176 198 188 198 179 167 185 191 190 192 194 177 193 181 169
262 276 276 248 231 242 241 240 179 121 122 124 128 126 119 112 107 98 94 86 69 74 77 94 89 109 239 221 185 177 175 181 190 207 192 184 187 214 204 198 200 202 216 201 193 188 206 207 195
265 266 272 288 286 287 269 227 131 116 109 123 128 127 121 120 115 106 105 103 113 99 102 118 134 193 228 232 226 213 177 183 194 217 204 182 192 211 209 196 203 204 212 211 209 214 220 212 202
271 270 282 286 286 285 256 223 172 151 145 141 141 133 127 123 119 116 114 118 143 136 135 132 185 205 213 232 239 231 195 172 202 220 247 201 190 191 163 209 215 218 234 227 203 207 228 223 202
255 284 282 269 287 282 271 241 203 181 157 136 130 121 113 109 109 113 128 125 117 135 144 184 218 209 199 218 233 235 214 185 213 210 226 226 193 175 168 201 188 204 219 217 202 207 218 217 209
248 259 269 274 266 279 288 300 45 149 151 169 161 143 126 135 133 118 123 138 165 167 146 206 227 218 212 226 237 233 210 197 210 213 234 236 203 175 184 203 204 205 209 210 201 219 209 221 223
261 264 268 271 276 279 284 281 338 128 144 157 155 151 145 139 140 145 152 149 173 178 179 253 257 249 249 243 246 246 229 203 202 212 227 230 201 195 202 203 213 212 206 209 211 225 222 222 224
Height
1487 1487 1488 1491 1492 1495 1496 1491 1486 1488 1489 1490 1491 1491 1495 1499 1504 1515 1514 1511 1510 1507 1505 1507 1508 1508 1508 1508 1508 1508 1508 1508 1508 1508 1508 1508 1507 1507 1507 1507 1507 1507 1508 1508 1509 1509 1509 1510 1510
1488 1489 1491 1491 1494 1501 1500 1490 1490 1490 1492 1492 1493 1494 1497 1502 1507 1510 1512 1512 1511 1508 1507 1509 1509 1509 1509 1509 1509 1510 1510 1510 1509 1509 1509 1509 1509 1508 1508 1508 1508 1508 1508 1509 1509 1509 1510 1510 1511
1489 1490 1491 1490 1493 1498 1499 1491 1490 1491 1493 1493 1495 1498 1502 1507 1509 1511 1512 1513 1512 1511 1510 1511 1511 1511 1511 1511 1511 1511 1511 1511 1511 1511 1511 1510 1510 1509 1509 1509 1509 1509 1509 1509 1509 1510 1510 1511 1511
1491 1492 1491 1492 1495 1491 1490 1490 1490 1492 1494 1494 1496 1501 1507 1510 1511 1512 1513 1514 1513 1513 1513 1513 1513 1513 1513 1513 1513 1513 1513 1513 1512 1512 1512 1511 1511 1511 1510 1510 1510 1509 1509 1509 1510 1510 1511 1511 1512
1492 1492 1492 1495 1493 1490 1488 1490 1491 1493 1495 1496 1499 1504 1509 1512 1512 1513 1515 1515 1515 1515 1515 1515 1515 1515 1515 1515 1515 1514 1514 1514 1514 1513 1513 1513 1512 1512 1511 1511 1510 1508 1508 1509 1510 1511 1512 1513 1514
1492 1490 1497 1500 1495 1490 1490 1491 1493 1494 1496 1498 1501 1505 1511 1513 1514 1515 1516 1517 1517 1517 1517 1517 1517 1517 1517 1517 1516 1516 1516 1516 1516 1515 1515 1514 1514 1513 1512 1511 1509 1507 1505 1507 1509 1512 1513 1514 1515
1493 1492 1496 1495 1497 1494 1493 1493 1495 1496 1498 1500 1502 1506 1511 1514 1515 1516 1517 1518 1518 1518 1518 1518 1518 1519 1519 1518 1518 1518 1518 1518 1517 1517 1516 1516 1515 1515 1514 1513 1511 1506 1505 1507 1511 1513 1515 1516 1516
1491 1491 1494 1495 1498 1498 1494 1496 1498 1499 1501 1503 1504 1506 1511 1514 1515 1517 1518 1519 1519 1519 1520 1520 1520 1520 1520 1520 1520 1520 1519 1519 1519 1519 1518 1518 1517 1517 1516 1515 1513 1510 1509 1511 1513 1515 1517 1517 1518
1492 1495 1498 1496 1497 1497 1496 1497 1499 1501 1503 1504 1506 1508 1512 1514 1516 1517 1519 1520 1520 1521 1521 1522 1522 1522 1521 1521 1521 1521 1521 1521 1521 1521 1520 1520 1519 1519 1518 1518 1517 1515 1515 1515 1516 1518 1519 1519 1520
1491 1499 1497 1493 1493 1495 1497 1498 1499 1501 1503 1506 1508 1511 1513 1515 1516 1517 1519 1520 1521 1522 1522 1523 1523 1523 1523 1523 1523 1523 1523 1523 1522 1522 1522 1522 1522 1521 1521 1520 1519 1519 1518 1518 1519 1520 1520 1521 1522
1491 1495 1494 1494 1495 1496 1498 1500 1500 1502 1505 1507 1509 1511 1513 1515 1516 1518 1519 1520 1521 1522 1523 1524 1524 1524 1524 1524 1524 1524 1524 1524 1524 1524 1524 1524 1524 1523 1522 1522 1521 1521 1521 1521 1521 1522 1522 1523 1523
1492 1492 1494 1495 1496 1498 1499 1500 1502 1503 1506 1508 1509 1511 1513 1515 1516 1517 1519 1520 1521 1522 1523 1524 1525 1525 1525 1525 1525 1525 1525 1525 1526 1526 1526 1525 1525 1525 1524 1524 1524 1524 1524 1524 1524 1524 1525 1525 1525
1493 1493 1495 1496 1498 1499 1500 1502 1503 1505 1507 1508 1510 1512 1513 1515 1516 1517 1519 1520 1521 1522 1523 1524 1525 1525 1526 1526 1526 1526 1526 1527 1527 1527 1527 1527 1526 1526 1526 1526 1526 1526 1526 1526 1526 1526 1526 1526 1527
1493 1494 1495 1496 1497 1498 1500 1502 1504 1505 1507 1508 1510 1512 1513 1514 1516 1517 1518 1519 1520 1521 1522 1523 1525 1525 1526 1526 1526 1527 1527 1527 1527 1527 1528 1528 1527 1527 1527 1527 1527 1527 1527 1527 1527 1527 1527 1527 1527
1494 1495 1495 1495 1496 1498 1500 1503 1503 1504 1506 1507 1509 1511 1513 1514 1515 1516 1517 1518 1520 1521 1522 1523 1524 1525 1526 1526 1526 1527 1527 1527 1527 1528 1528 1528 1528 1528 1528 1528 1528 1528 1528 1528 1528 1528 1528 1528 1528
1493 1495 1499 1494 1493 1495 1502 1509 1503 1503 1505 1506 1508 1510 1512 1513 1515 1516 1517 1518 1519 1520 1521 1522 1523 1524 1525 1526 1526 1527 1527 1527 1527 1528 1528 1529 1528 1529 1529 1528 1529 1529 1529 1529 1529 1529 1529 1529 1529
1494 1499 1499 1494 1490 1492 1498 1504 1501 1502 1503 1505 1507 1509 1510 1512 1513 1515 1516 1517 1518 1519 1520 1521 1522 1523 1524 1525 1526 1526 1527 1527 1527 1528 1528 1529 1529 1529 1529 1529 1529 1529 1529 1529 1530 1530 1530 1529 1529
1499 1496 1495 1495 1490 1492 1497 1500 1500 1501 1502 1503 1504 1506 1508 1510 1512 1513 1515 1516 1517 1518 1519 1519 1521 1522 1523 1524 1525 1525 1526 1527 1527 1528 1528 1528 1529 1529 1529 1529 1529 1529 1529 1529 1530 1530 1530 1530 1530
1491 1493 1496 1493 1490 1493 1497 1498 1497 1498 1500 1501 1503 1504 1506 1509 1511 1512 1513 1514 1515 1516 1518 1519 1520 1520 1522 1522 1523 1524 1525 1526 1526 1527 1527 1528 1528 1528 1529 1529 1529 1529 1529 1529 1530 1530 1530 1530 1530
1491 1495 1496 1493 1489 1492 1496 1497 1495 1496 1498 1500 1501 1503 1505 1507 1509 1510 1512 1513 1514 1515 1516 1517 1518 1519 1520 1521 1522 1523 1523 1524 1525 1526 1526 1527 1527 1528 1528 1528 1528 1529 1529 1529 1530 1530 1530 1530 1530
1492 1494 1495 1496 1491 1491 1495 1500 1496 1495 1496 1499 1500 1502 1504 1506 1507 1509 1510 1511 1512 1513 1515 1516 1517 1518 1519 1519 1520 1522 1522 1523 1524 1524 1525 1526 1526 1527 1527 1527 1528 1528 1528 1529 1529 1529 1529 1529 1530
1496 1490 1491 1493 1498 1499 1494 1506 1497 1493 1495 1496 1499 1501 1502 1504 1506 1507 1509 1510 1510 1511 1513 1514 1515 1516 1517 1518 1518 1519 1520 1520 1521 1523 1523 1524 1525 1525 1526 1526 1527 1527 1527 1528 1528 1528 1528 1529 1529
1492 1488 1489 1491 1495 1497 1492 1498 1497 1490 1494 1495 1496 1499 1501 1503 1504 1506 1507 1508 1509 1509 1510 1512 1513 1514 1515 1516 1516 1517 1518 1519 1520 1521 1522 1522 1523 1523 1524 1525 1525 1526 1526 1526 1527 1527 1527 1528 1528
1489 1489 1488 1487 1492 1503 1490 1493 1498 1490 1489 1491 1494 1497 1500 1502 1503 1505 1506 1506 1507 1508 1509 1510 1511 1512 1513 1514 1515 1515 1516 1517 1518 1519 1519 1520 1521 1521 1522 1523 1523 1524 1524 1525 1525 1526 1526 1527 1527
1490 1497 1505 1504 1504 1499 1481 1487 1493 1485 1485 1488 1492 1495 1498 1500 1502 1504 1504 1505 1506 1506 1507 1508 1509 1510 1511 1512 1513 1513 1514 1515 1516 1517 1517 1518 1518 1519 1519 1520 1521 1522 1522 1523 1524 1524 1525 1525 1526
1491 1493 1507 1515 1508 1493 1481 1488 1489 1483 1485 1488 1491 1494 1496 1499 1501 1503 1504 1504 1505 1506 1506 1507 1508 1508 1509 1510 1510 1511 1512 1513 1513 1514 1514 1515 1515 1516 1517 1517 1518 1519 1520 1521 1521 1522 1523 1523 1524
1491 1491 1487 1496 1495 1497 1489 1489 1486 1482 1485 1488 1491 1493 1496 1498 1500 1502 1502 1503 1504 1504 1505 1505 1506 1506 1507 1507 1508 1509 1509 1510 1510 1511 1512 1512 1513 1513 1514 1515 1516 1516 1518 1518 1519 1520 1520 1521 1521
1488 1488 1491 1498 1507 1507 1493 1489 1491 1487 1486 1487 1490 1493 1496 1498 1500 1501 1501 1502 1503 1503 1503 1504 1504 1504 1504 1505 1506 1506 1507 1507 1508 1509 1509 1510 1510 1511 1511 1512 1513 1514 1514 1515 1516 1517 1517 1518 1519
1488 1489 1490 1492 1495 1506 1506 1499 1479 1482 1484 1487 1489 1492 1495 1497 1498 1499 1500 1501 1502 1502 1502 1502 1502 1502 1502 1503 1503 1503 1504 1504 1505 1505 1506 1507 1508 1508 1508 1509 1510 1511 1512 1513 1513 1514 1515 1515 1516
1484 1486 1489 1501 1500 1496 1500 1499 1478 1480 1482 1485 1488 1491 1493 1495 1497 1498 1499 1499 1499 1500 1500 1499 1500 1500 1500 1500 1500 1500 1501 1501 1502 1502 1503 1504 1504 1505 1505 1506 1507 1508 1509 1510 1510 1511 1512 1513 1513